"Platform","Muskegon M20 ReCON Buoy"
"NDBC ID","45161"
"Latitude (deg)",43.17967
"Longitude (deg)",-86.35752
"Water Depth (m)",22
"Sensor Device","System Power Controller board voltage input"
"Sensor Type","Solar panel voltage"
"Sensor Units","voltage"
"Measurement","A sample"
"Time means","Time at sample (UTC time zone)"

"Note:","This data was collected for research purposes."
"Note:","Minimal quality checking has been performed so data may contain known or unknown errors."
"Note:","Data provided by NOAA. Please credit NOAA."
"Note:","For more info see www.glerl.noaa.gov/res/recon"

"Time (UTC)","Solar Panel"
"YYYY/MM/DD HH:MM","volts"
2016/05/02 18:18, 17.63
2016/05/02 18:38, 14.61
2016/05/02 18:58, 18.38
2016/05/02 19:18, 19.11
2016/05/02 19:38, 15.29
2016/05/02 19:58, 16.94
2016/05/02 20:18, 16.49
2016/05/02 20:38, 13.12
2016/05/02 20:58, 15.26
2016/05/02 21:18, 17.80
2016/05/02 21:38, 13.93
2016/05/02 21:58, 13.54
2016/05/02 22:18, 13.33
2016/05/02 22:38, 13.62
2016/05/02 22:58, 12.86
2016/05/02 23:18, 12.61
2016/05/02 23:38, 15.69
2016/05/02 23:58, 12.20
2016/05/03 00:18, 11.84
2016/05/03 00:38, 12.22
2016/05/03 00:58, 12.19
2016/05/03 01:18, 2.08
2016/05/03 01:38, 0.40
2016/05/03 01:58, 0.40
2016/05/03 02:18, 0.40
2016/05/03 02:38, 0.40
2016/05/03 02:58, 0.40
2016/05/03 03:18, 0.40
2016/05/03 03:38, 0.40
2016/05/03 03:58, 0.40
2016/05/03 04:18, 0.40
2016/05/03 04:38, 0.40
2016/05/03 04:58, 0.40
2016/05/03 05:18, 0.40
2016/05/03 05:38, 0.40
2016/05/03 05:58, 0.40
2016/05/03 06:18, 0.40
2016/05/03 06:38, 0.40
2016/05/03 06:58, 0.40
2016/05/03 07:18, 0.40
2016/05/03 07:38, 0.40
2016/05/03 07:58, 0.40
2016/05/03 08:18, 0.40
2016/05/03 08:38, 0.40
2016/05/03 08:58, 0.40
2016/05/03 09:18, 0.40
2016/05/03 09:38, 0.40
2016/05/03 09:58, 1.29
2016/05/03 10:18, 10.18
2016/05/03 10:38, 11.54
2016/05/03 10:58, 14.14
2016/05/03 11:18, 16.14
2016/05/03 11:38, 17.57
2016/05/03 11:58, 17.70
2016/05/03 12:18, 17.97
2016/05/03 12:38, 17.53
2016/05/03 12:58, 18.25
2016/05/03 13:18, 18.45
2016/05/03 13:38, 18.83
2016/05/03 13:58, 19.19
2016/05/03 14:18, 19.09
2016/05/03 14:38, 18.15
2016/05/03 14:58, 18.79
2016/05/03 15:18, 18.73
2016/05/03 15:38, 18.48
2016/05/03 15:58, 18.51
2016/05/03 16:18, 18.48
2016/05/03 16:38, 17.46
2016/05/03 16:58, 18.44
2016/05/03 17:18, 18.05
2016/05/03 17:38, 18.41
2016/05/03 17:58, 18.64
2016/05/03 18:18, 18.75
2016/05/03 18:38, 17.63
2016/05/03 18:58, 18.90
2016/05/03 19:18, 19.42
2016/05/03 19:38, 19.04
2016/05/03 19:58, 19.48
2016/05/03 20:18, 18.34
2016/05/03 20:38, 18.02
2016/05/03 20:58, 20.13
2016/05/03 21:18, 18.46
2016/05/03 21:38, 18.46
2016/05/03 21:58, 18.39
2016/05/03 22:18, 15.98
2016/05/03 22:38, 13.34
2016/05/03 22:58, 12.83
2016/05/03 23:18, 13.10
2016/05/03 23:38, 12.23
2016/05/03 23:58, 12.42
2016/05/04 00:18, 12.25
2016/05/04 00:38, 11.74
2016/05/04 00:58, 9.09
2016/05/04 01:18, 0.99
2016/05/04 01:38, 0.40
2016/05/04 01:58, 0.40
2016/05/04 02:18, 0.40
2016/05/04 02:38, 0.40
2016/05/04 02:58, 0.40
2016/05/04 03:18, 0.40
2016/05/04 03:38, 0.40
2016/05/04 03:58, 0.40
2016/05/04 04:18, 0.40
2016/05/04 04:38, 0.40
2016/05/04 04:58, 0.40
2016/05/04 05:18, 0.40
2016/05/04 05:38, 0.40
2016/05/04 05:58, 0.40
2016/05/04 06:18, 0.40
2016/05/04 06:38, 0.40
2016/05/04 06:58, 0.40
2016/05/04 07:18, 0.40
2016/05/04 07:38, 0.40
2016/05/04 07:58, 0.40
2016/05/04 08:18, 0.40
2016/05/04 08:38, 0.40
2016/05/04 08:58, 0.40
2016/05/04 09:18, 0.40
2016/05/04 09:38, 0.40
2016/05/04 09:58, 0.40
2016/05/04 10:18, 1.10
2016/05/04 10:38, 7.02
2016/05/04 10:58, 11.75
2016/05/04 11:18, 11.91
2016/05/04 11:38, 12.05
2016/05/04 11:58, 12.05
2016/05/04 12:18, 12.24
2016/05/04 12:38, 11.70
2016/05/04 12:58, 12.39
2016/05/04 13:18, 12.64
2016/05/04 13:38, 12.35
2016/05/04 13:58, 12.57
2016/05/04 14:18, 12.80
2016/05/04 14:38, 12.35
2016/05/04 14:58, 12.25
2016/05/04 15:18, 12.46
2016/05/04 15:38, 13.02
2016/05/04 15:58, 13.12
2016/05/04 16:18, 12.93
2016/05/04 16:38, 13.11
2016/05/04 16:58, 13.41
2016/05/04 17:18, 14.62
2016/05/04 17:38, 13.42
2016/05/04 17:58, 13.32
2016/05/04 18:18, 13.33
2016/05/04 18:38, 12.62
2016/05/04 18:58, 13.33
2016/05/04 19:18, 13.73
2016/05/04 19:38, 13.82
2016/05/04 19:58, 13.25
2016/05/04 20:18, 13.01
2016/05/04 20:38, 12.51
2016/05/04 20:58, 12.84
2016/05/04 21:18, 12.68
2016/05/04 21:38, 12.64
2016/05/04 21:58, 12.33
2016/05/04 22:18, 12.25
2016/05/04 22:38, 11.82
2016/05/04 22:58, 12.25
2016/05/04 23:18, 12.25
2016/05/04 23:38, 12.15
2016/05/04 23:58, 12.07
2016/05/05 00:18, 12.05
2016/05/05 00:38, 11.49
2016/05/05 00:58, 5.44
2016/05/05 01:18, 0.40
2016/05/05 01:38, 0.40
2016/05/05 01:58, 0.40
2016/05/05 02:18, 0.40
2016/05/05 02:38, 0.40
2016/05/05 02:58, 0.40
2016/05/05 03:18, 0.40
2016/05/05 03:38, 0.40
2016/05/05 03:58, 0.40
2016/05/05 04:18, 0.40
2016/05/05 04:38, 0.40
2016/05/05 04:58, 0.40
2016/05/05 05:18, 0.40
2016/05/05 05:38, 0.40
2016/05/05 05:58, 0.40
2016/05/05 06:18, 0.40
2016/05/05 10:58, 12.64
2016/05/05 11:18, 13.73
2016/05/05 11:38, 14.85
2016/05/05 11:58, 16.68
2016/05/05 12:18, 17.66
2016/05/05 12:38, 17.33
2016/05/05 12:58, 18.38
2016/05/05 13:18, 18.47
2016/05/05 13:38, 18.46
2016/05/05 13:58, 18.58
2016/05/05 14:18, 18.47
2016/05/05 14:38, 17.95
2016/05/05 14:58, 18.89
2016/05/05 15:18, 18.53
2016/05/05 15:38, 18.37
2016/05/05 15:58, 18.62
2016/05/05 16:18, 18.43
2016/05/05 16:38, 17.46
2016/05/05 16:58, 18.21
2016/05/05 17:18, 16.93
2016/05/05 17:38, 16.73
2016/05/05 17:58, 17.11
2016/05/05 18:18, 17.49
2016/05/05 18:38, 17.63
2016/05/05 18:58, 17.91
2016/05/05 19:18, 18.15
2016/05/05 19:38, 18.51
2016/05/05 19:58, 18.95
2016/05/05 20:18, 19.61
2016/05/05 20:38, 19.86
2016/05/05 20:58, 19.80
2016/05/05 21:18, 19.86
2016/05/05 21:38, 19.96
2016/05/05 21:58, 19.92
2016/05/05 22:18, 20.16
2016/05/05 22:38, 19.98
2016/05/05 22:58, 19.80
2016/05/05 23:18, 19.06
2016/05/05 23:38, 18.57
2016/05/05 23:58, 15.17
2016/05/06 00:18, 13.77
2016/05/06 00:38, 13.04
2016/05/06 00:58, 12.25
2016/05/06 01:18, 4.75
2016/05/06 01:38, 0.40
2016/05/06 01:58, 0.40
2016/05/06 02:18, 0.40
2016/05/06 02:38, 0.40
2016/05/06 02:58, 0.40
2016/05/06 03:18, 0.40
2016/05/06 03:38, 0.40
2016/05/06 03:58, 0.40
2016/05/06 04:18, 0.40
2016/05/06 04:38, 0.40
2016/05/06 04:58, 0.40
2016/05/06 05:18, 0.40
2016/05/06 05:38, 0.40
2016/05/06 05:58, 0.40
2016/05/06 06:18, 0.40
2016/05/06 06:38, 0.40
2016/05/06 06:58, 0.40
2016/05/06 07:18, 0.40
2016/05/06 07:38, 0.40
2016/05/06 07:58, 0.40
2016/05/06 08:18, 0.40
2016/05/06 08:38, 0.40
2016/05/06 08:58, 0.40
2016/05/06 09:18, 0.40
2016/05/06 09:38, 0.40
2016/05/06 09:58, 1.45
2016/05/06 10:18, 11.55
2016/05/06 10:38, 12.05
2016/05/06 10:58, 12.49
2016/05/06 11:18, 13.45
2016/05/06 11:38, 14.10
2016/05/06 11:58, 14.55
2016/05/06 12:18, 14.22
2016/05/06 12:38, 18.00
2016/05/06 12:58, 18.65
2016/05/06 13:18, 19.25
2016/05/06 13:38, 19.34
2016/05/06 13:58, 19.42
2016/05/06 14:18, 19.30
2016/05/06 14:38, 18.83
2016/05/06 14:58, 19.57
2016/05/06 15:18, 19.29
2016/05/06 15:38, 19.28
2016/05/06 15:58, 19.25
2016/05/06 16:18, 19.12
2016/05/06 16:38, 18.93
2016/05/06 16:58, 18.92
2016/05/06 17:18, 18.99
2016/05/06 17:38, 19.23
2016/05/06 17:58, 19.44
2016/05/06 18:18, 18.80
2016/05/06 18:38, 18.65
2016/05/06 18:58, 19.46
2016/05/06 19:18, 19.62
2016/05/06 19:38, 19.59
2016/05/06 19:58, 19.64
2016/05/06 20:18, 19.59
2016/05/06 20:38, 19.43
2016/05/06 20:58, 19.44
2016/05/06 21:18, 19.48
2016/05/06 21:38, 19.62
2016/05/06 21:58, 19.62
2016/05/06 22:18, 19.64
2016/05/06 22:38, 19.38
2016/05/06 22:58, 18.53
2016/05/06 23:18, 18.80
2016/05/06 23:38, 18.44
2016/05/06 23:58, 17.81
2016/05/07 00:18, 14.82
2016/05/07 00:38, 12.85
2016/05/07 00:58, 12.25
2016/05/07 01:18, 2.00
2016/05/07 01:38, 0.40
2016/05/07 01:58, 0.40
2016/05/07 02:18, 0.40
2016/05/07 02:38, 0.40
2016/05/07 02:58, 0.40
2016/05/07 03:18, 0.40
2016/05/07 03:38, 0.40
2016/05/07 03:58, 0.40
2016/05/07 04:18, 0.40
2016/05/07 04:38, 0.40
2016/05/07 04:58, 0.40
2016/05/07 05:18, 0.40
2016/05/07 05:38, 0.40
2016/05/07 05:58, 0.40
2016/05/07 06:18, 0.40
2016/05/07 06:38, 0.40
2016/05/07 06:58, 0.40
2016/05/07 07:18, 0.40
2016/05/07 07:38, 0.40
2016/05/07 07:58, 0.40
2016/05/07 08:18, 0.40
2016/05/07 08:38, 0.40
2016/05/07 08:58, 0.40
2016/05/07 09:18, 0.40
2016/05/07 09:38, 0.40
2016/05/07 09:58, 0.40
2016/05/07 10:18, 7.61
2016/05/07 10:38, 12.05
2016/05/07 10:58, 12.25
2016/05/07 11:18, 12.50
2016/05/07 11:38, 13.14
2016/05/07 11:58, 13.62
2016/05/07 12:18, 13.93
2016/05/07 12:38, 13.44
2016/05/07 12:58, 14.29
2016/05/07 13:18, 14.42
2016/05/07 13:38, 14.22
2016/05/07 13:58, 16.23
2016/05/07 14:18, 18.60
2016/05/07 14:38, 17.60
2016/05/07 14:58, 19.49
2016/05/07 15:18, 19.25
2016/05/07 15:38, 19.04
2016/05/07 15:58, 19.32
2016/05/07 16:18, 19.17
2016/05/07 16:38, 18.12
2016/05/07 16:58, 19.19
2016/05/07 17:18, 19.21
2016/05/07 17:38, 19.28
2016/05/07 17:58, 19.25
2016/05/07 18:18, 19.47
2016/05/07 18:38, 18.65
2016/05/07 18:58, 19.66
2016/05/07 19:18, 19.77
2016/05/07 19:38, 19.86
2016/05/07 19:58, 20.03
2016/05/07 20:18, 20.44
2016/05/07 20:38, 19.44
2016/05/07 20:58, 19.73
2016/05/07 21:18, 19.98
2016/05/07 21:38, 20.28
2016/05/07 21:58, 20.02
2016/05/07 22:18, 20.60
2016/05/07 22:38, 20.36
2016/05/07 22:58, 20.19
2016/05/07 23:18, 19.70
2016/05/07 23:38, 19.43
2016/05/07 23:58, 18.89
2016/05/08 00:18, 13.80
2016/05/08 00:38, 13.33
2016/05/08 00:58, 12.25
2016/05/08 01:18, 4.73
2016/05/08 01:38, 0.40
2016/05/08 01:58, 0.40
2016/05/08 02:18, 0.40
2016/05/08 02:38, 0.40
2016/05/08 02:58, 0.40
2016/05/08 03:18, 0.40
2016/05/08 03:38, 0.40
2016/05/08 03:58, 0.40
2016/05/08 04:18, 0.40
2016/05/08 04:38, 0.40
2016/05/08 04:58, 0.40
2016/05/08 05:18, 0.40
2016/05/08 05:38, 0.40
2016/05/08 05:58, 0.40
2016/05/08 06:18, 0.40
2016/05/08 06:38, 0.40
2016/05/08 06:58, 0.40
2016/05/08 07:18, 0.40
2016/05/08 07:38, 0.40
2016/05/08 07:58, 0.40
2016/05/08 08:18, 0.40
2016/05/08 08:38, 0.40
2016/05/08 08:58, 0.40
2016/05/08 09:18, 0.40
2016/05/08 09:38, 0.40
2016/05/08 09:58, 2.87
2016/05/08 10:18, 10.49
2016/05/08 10:38, 12.33
2016/05/08 10:58, 14.11
2016/05/08 11:18, 12.63
2016/05/08 11:38, 13.82
2016/05/08 11:58, 17.94
2016/05/08 12:18, 14.22
2016/05/08 12:38, 18.87
2016/05/08 12:58, 18.65
2016/05/08 13:18, 18.67
2016/05/08 13:38, 18.51
2016/05/08 13:58, 18.59
2016/05/08 14:18, 17.92
2016/05/08 14:38, 16.75
2016/05/08 14:58, 19.74
2016/05/08 15:18, 19.06
2016/05/08 15:38, 19.45
2016/05/08 15:58, 19.51
2016/05/08 16:18, 19.36
2016/05/08 16:38, 19.26
2016/05/08 16:58, 19.21
2016/05/08 17:18, 19.02
2016/05/08 17:38, 19.01
2016/05/08 17:58, 19.10
2016/05/08 18:18, 19.22
2016/05/08 18:38, 17.87
2016/05/08 18:58, 19.31
2016/05/08 19:18, 19.53
2016/05/08 19:38, 19.81
2016/05/08 19:58, 19.82
2016/05/08 20:18, 19.95
2016/05/08 20:38, 19.96
2016/05/08 20:58, 19.70
2016/05/08 21:18, 20.01
2016/05/08 21:38, 19.77
2016/05/08 21:58, 19.71
2016/05/08 22:18, 19.76
2016/05/08 22:38, 19.58
2016/05/08 22:58, 19.63
2016/05/08 23:18, 19.65
2016/05/08 23:38, 19.20
2016/05/08 23:58, 18.23
2016/05/09 00:18, 13.85
2016/05/09 00:38, 12.64
2016/05/09 00:58, 12.25
2016/05/09 01:18, 5.44
2016/05/09 01:38, 0.40
2016/05/09 01:58, 0.40
2016/05/09 02:18, 0.40
2016/05/09 02:38, 0.40
2016/05/09 02:58, 0.40
2016/05/09 03:18, 0.40
2016/05/09 03:38, 0.40
2016/05/09 03:58, 0.40
2016/05/09 04:18, 0.40
2016/05/09 04:38, 0.40
2016/05/09 04:58, 0.40
2016/05/09 05:18, 0.40
2016/05/09 05:38, 0.40
2016/05/09 05:58, 0.40
2016/05/09 06:18, 0.40
2016/05/09 06:38, 0.40
2016/05/09 06:58, 0.40
2016/05/09 07:18, 0.40
2016/05/09 07:38, 0.40
2016/05/09 07:58, 0.40
2016/05/09 08:18, 0.40
2016/05/09 08:38, 0.40
2016/05/09 08:58, 0.40
2016/05/09 09:18, 0.40
2016/05/09 09:38, 0.40
2016/05/09 09:58, 2.94
2016/05/09 10:18, 12.05
2016/05/09 10:38, 12.25
2016/05/09 10:58, 12.32
2016/05/09 11:18, 13.31
2016/05/09 11:38, 14.10
2016/05/09 11:58, 13.83
2016/05/09 12:18, 16.05
2016/05/09 12:38, 17.35
2016/05/09 12:58, 17.14
2016/05/09 13:18, 17.67
2016/05/09 13:38, 16.81
2016/05/09 13:58, 16.96
2016/05/09 14:18, 19.21
2016/05/09 14:38, 18.84
2016/05/09 14:58, 19.43
2016/05/09 15:18, 19.47
2016/05/09 15:38, 19.18
2016/05/09 15:58, 18.68
2016/05/09 16:18, 19.20
2016/05/09 16:38, 19.13
2016/05/09 16:58, 19.19
2016/05/09 17:18, 19.04
2016/05/09 17:38, 19.43
2016/05/09 17:58, 19.43
2016/05/09 18:18, 19.51
2016/05/09 18:38, 18.42
2016/05/09 18:58, 19.55
2016/05/09 19:18, 19.60
2016/05/09 19:38, 19.52
2016/05/09 19:58, 19.55
2016/05/09 20:18, 19.38
2016/05/09 20:38, 19.03
2016/05/09 20:58, 19.16
2016/05/09 21:18, 18.33
2016/05/09 21:38, 16.63
2016/05/09 21:58, 15.90
2016/05/09 22:18, 14.59
2016/05/09 22:38, 16.90
2016/05/09 22:58, 18.56
2016/05/09 23:18, 18.25
2016/05/09 23:38, 17.02
2016/05/09 23:58, 13.33
2016/05/10 00:18, 12.84
2016/05/10 00:38, 12.34
2016/05/10 00:58, 12.25
2016/05/10 01:18, 3.13
2016/05/10 01:38, 0.40
2016/05/10 01:58, 0.40
2016/05/10 02:18, 0.40
2016/05/10 02:38, 0.40
2016/05/10 02:58, 0.40
2016/05/10 03:18, 0.40
2016/05/10 03:38, 0.40
2016/05/10 03:58, 0.40
2016/05/10 04:18, 0.40
2016/05/10 04:38, 0.40
2016/05/10 04:58, 0.40
2016/05/10 05:18, 0.40
2016/05/10 05:38, 0.40
2016/05/10 05:58, 0.40
2016/05/10 06:18, 0.40
2016/05/10 06:38, 0.40
2016/05/10 06:58, 0.40
2016/05/10 07:18, 0.40
2016/05/10 07:38, 0.40
2016/05/10 07:58, 0.40
2016/05/10 08:18, 0.40
2016/05/10 08:38, 0.40
2016/05/10 08:58, 0.40
2016/05/10 09:18, 0.40
2016/05/10 09:38, 0.40
2016/05/10 09:58, 0.40
2016/05/10 10:18, 3.16
2016/05/10 10:38, 8.69
2016/05/10 10:58, 10.20
2016/05/10 11:18, 12.04
2016/05/10 11:38, 12.25
2016/05/10 11:58, 12.25
2016/05/10 12:18, 12.49
2016/05/10 12:38, 13.13
2016/05/10 12:58, 13.73
2016/05/10 13:18, 13.73
2016/05/10 13:38, 13.39
2016/05/10 13:58, 13.43
2016/05/10 14:18, 13.44
2016/05/10 14:38, 13.30
2016/05/10 14:58, 13.33
2016/05/10 15:18, 13.04
2016/05/10 15:38, 13.29
2016/05/10 15:58, 12.84
2016/05/10 16:18, 12.84
2016/05/10 16:38, 12.93
2016/05/10 16:58, 12.94
2016/05/10 17:18, 12.84
2016/05/10 17:38, 12.64
2016/05/10 17:58, 12.64
2016/05/10 18:18, 12.61
2016/05/10 18:38, 12.10
2016/05/10 18:58, 12.57
2016/05/10 19:18, 12.64
2016/05/10 19:38, 12.64
2016/05/10 19:58, 12.84
2016/05/10 20:18, 12.64
2016/05/10 20:38, 12.82
2016/05/10 20:58, 12.64
2016/05/10 21:18, 12.35
2016/05/10 21:38, 12.35
2016/05/10 21:58, 12.64
2016/05/10 22:18, 12.93
2016/05/10 22:38, 12.64
2016/05/10 22:58, 12.64
2016/05/10 23:18, 12.64
2016/05/10 23:38, 12.64
2016/05/10 23:58, 12.30
2016/05/11 00:18, 12.25
2016/05/11 00:38, 12.25
2016/05/11 00:58, 9.09
2016/05/11 01:18, 1.49
2016/05/11 01:38, 0.40
2016/05/11 01:58, 0.40
2016/05/11 02:18, 0.40
2016/05/11 02:38, 0.40
2016/05/11 02:58, 0.40
2016/05/11 03:18, 0.40
2016/05/11 03:38, 0.40
2016/05/11 03:58, 0.40
2016/05/11 04:18, 0.40
2016/05/11 04:38, 0.40
2016/05/11 04:58, 0.40
2016/05/11 05:18, 0.40
2016/05/11 05:38, 0.40
2016/05/11 05:58, 0.40
2016/05/11 06:18, 0.40
2016/05/11 06:38, 0.40
2016/05/11 06:58, 0.40
2016/05/11 07:18, 0.40
2016/05/11 07:38, 0.40
2016/05/11 07:58, 0.40
2016/05/11 08:18, 0.40
2016/05/11 08:38, 0.40
2016/05/11 08:58, 0.40
2016/05/11 09:18, 0.40
2016/05/11 09:38, 0.40
2016/05/11 09:58, 1.98
2016/05/11 10:18, 10.18
2016/05/11 10:38, 12.05
2016/05/11 10:58, 12.25
2016/05/11 11:18, 13.82
2016/05/11 11:38, 13.01
2016/05/11 11:58, 13.32
2016/05/11 12:18, 13.33
2016/05/11 12:38, 14.22
2016/05/11 12:58, 13.33
2016/05/11 13:18, 13.33
2016/05/11 13:38, 13.62
2016/05/11 13:58, 13.63
2016/05/11 14:18, 14.18
2016/05/11 14:38, 14.20
2016/05/11 14:58, 15.25
2016/05/11 15:18, 16.35
2016/05/11 15:38, 16.45
2016/05/11 15:58, 17.95
2016/05/11 16:18, 17.85
2016/05/11 16:38, 17.91
2016/05/11 16:58, 17.90
2016/05/11 17:18, 18.04
2016/05/11 17:38, 18.31
2016/05/11 17:58, 18.25
2016/05/11 18:18, 18.71
2016/05/11 18:38, 17.59
2016/05/11 18:58, 18.33
2016/05/11 19:18, 18.61
2016/05/11 19:38, 18.85
2016/05/11 19:58, 19.38
2016/05/11 20:18, 19.04
2016/05/11 20:38, 19.51
2016/05/11 20:58, 17.31
2016/05/11 21:18, 19.41
2016/05/11 21:38, 19.02
2016/05/11 21:58, 17.55
2016/05/11 22:18, 19.35
2016/05/11 22:38, 17.06
2016/05/11 22:58, 19.05
2016/05/11 23:18, 19.15
2016/05/11 23:38, 17.04
2016/05/11 23:58, 16.64
2016/05/12 00:18, 12.64
2016/05/12 00:38, 12.25
2016/05/12 00:58, 9.19
2016/05/12 01:18, 2.67
2016/05/12 01:38, 0.40
2016/05/12 01:58, 0.40
2016/05/12 02:18, 0.40
2016/05/12 02:38, 0.40
2016/05/12 02:58, 0.40
2016/05/12 03:18, 0.40
2016/05/12 03:38, 0.40
2016/05/12 03:58, 0.40
2016/05/12 04:18, 0.40
2016/05/12 04:38, 0.40
2016/05/12 04:58, 0.40
2016/05/12 05:18, 0.40
2016/05/12 05:38, 0.40
2016/05/12 05:58, 0.40
2016/05/12 06:18, 0.40
2016/05/12 06:38, 0.40
2016/05/12 06:58, 0.40
2016/05/12 07:18, 0.40
2016/05/12 07:38, 0.40
2016/05/12 07:58, 0.40
2016/05/12 08:18, 0.40
2016/05/12 08:38, 0.40
2016/05/12 08:58, 0.40
2016/05/12 09:18, 0.40
2016/05/12 09:38, 0.40
2016/05/12 09:58, 0.40
2016/05/12 10:18, 4.35
2016/05/12 10:38, 8.70
2016/05/12 10:58, 12.06
2016/05/12 11:18, 12.15
2016/05/12 11:38, 12.05
2016/05/12 11:58, 12.34
2016/05/12 12:18, 12.25
2016/05/12 12:38, 12.35
2016/05/12 12:58, 13.04
2016/05/12 13:18, 13.85
2016/05/12 13:38, 14.66
2016/05/12 13:58, 17.18
2016/05/12 14:18, 16.52
2016/05/12 14:38, 18.07
2016/05/12 14:58, 17.48
2016/05/12 15:18, 17.22
2016/05/12 15:38, 15.77
2016/05/12 15:58, 16.02
2016/05/12 16:18, 14.14
2016/05/12 16:38, 17.00
2016/05/12 16:58, 18.25
2016/05/12 17:18, 18.62
2016/05/12 17:38, 13.73
2016/05/12 17:58, 13.04
2016/05/12 18:18, 13.14
2016/05/12 18:38, 12.24
2016/05/12 18:58, 12.84
2016/05/12 19:18, 12.64
2016/05/12 19:38, 12.64
2016/05/12 19:58, 12.64
2016/05/12 20:18, 12.35
2016/05/12 20:38, 13.04
2016/05/12 20:58, 16.06
2016/05/12 21:18, 16.81
2016/05/12 21:38, 15.69
2016/05/12 21:58, 15.21
2016/05/12 22:18, 17.84
2016/05/12 22:38, 17.13
2016/05/12 22:58, 15.25
2016/05/12 23:18, 16.95
2016/05/12 23:38, 14.57
2016/05/12 23:58, 13.73
2016/05/13 00:18, 12.94
2016/05/13 00:38, 12.46
2016/05/13 00:58, 12.25
2016/05/13 01:18, 2.86
2016/05/13 01:38, 0.40
2016/05/13 01:58, 0.40
2016/05/13 02:18, 0.40
2016/05/13 02:38, 0.40
2016/05/13 02:58, 0.40
2016/05/13 03:18, 0.40
2016/05/13 03:38, 0.40
2016/05/13 03:58, 0.40
2016/05/13 04:18, 0.40
2016/05/13 04:38, 0.40
2016/05/13 04:58, 0.40
2016/05/13 05:18, 0.40
2016/05/13 05:38, 0.40
2016/05/13 05:58, 0.40
2016/05/13 06:18, 0.40
2016/05/13 06:38, 0.40
2016/05/13 06:58, 0.40
2016/05/13 07:18, 0.40
2016/05/13 07:38, 0.40
2016/05/13 07:58, 0.40
2016/05/13 08:18, 0.40
2016/05/13 08:38, 0.40
2016/05/13 08:58, 0.40
2016/05/13 09:18, 0.40
2016/05/13 09:38, 0.40
2016/05/13 09:58, 1.33
2016/05/13 10:18, 10.76
2016/05/13 10:38, 12.05
2016/05/13 10:58, 12.25
2016/05/13 11:18, 12.42
2016/05/13 11:38, 16.84
2016/05/13 11:58, 17.88
2016/05/13 12:18, 14.47
2016/05/13 12:38, 15.27
2016/05/13 12:58, 18.69
2016/05/13 13:18, 19.05
2016/05/13 13:38, 18.92
2016/05/13 13:58, 19.10
2016/05/13 14:18, 17.61
2016/05/13 14:38, 18.38
2016/05/13 14:58, 19.35
2016/05/13 15:18, 19.04
2016/05/13 15:38, 19.32
2016/05/13 15:58, 18.93
2016/05/13 16:18, 19.15
2016/05/13 16:38, 19.31
2016/05/13 16:58, 19.27
2016/05/13 17:18, 19.23
2016/05/13 17:38, 19.31
2016/05/13 17:58, 19.49
2016/05/13 18:18, 19.29
2016/05/13 18:38, 18.06
2016/05/13 18:58, 19.44
2016/05/13 19:18, 19.24
2016/05/13 19:38, 17.69
2016/05/13 19:58, 17.07
2016/05/13 20:18, 17.04
2016/05/13 20:38, 14.13
2016/05/13 20:58, 13.04
2016/05/13 21:18, 12.64
2016/05/13 21:38, 12.64
2016/05/13 21:58, 12.64
2016/05/13 22:18, 12.43
2016/05/13 22:38, 12.29
2016/05/13 22:58, 12.25
2016/05/13 23:18, 12.25
2016/05/13 23:38, 12.25
2016/05/13 23:58, 12.25
2016/05/14 00:18, 12.25
2016/05/14 00:38, 12.25
2016/05/14 00:58, 6.32
2016/05/14 01:18, 1.19
2016/05/14 01:38, 0.40
2016/05/14 01:58, 0.40
2016/05/14 02:18, 0.40
2016/05/14 02:38, 0.40
2016/05/14 02:58, 0.40
2016/05/14 03:18, 0.40
2016/05/14 03:38, 0.40
2016/05/14 03:58, 0.40
2016/05/14 04:18, 0.40
2016/05/14 04:38, 0.40
2016/05/14 04:58, 0.40
2016/05/14 05:18, 0.40
2016/05/14 05:38, 0.40
2016/05/14 05:58, 0.40
2016/05/14 06:18, 0.40
2016/05/14 06:38, 0.40
2016/05/14 06:58, 0.40
2016/05/14 07:18, 0.40
2016/05/14 07:38, 0.40
2016/05/14 07:58, 0.40
2016/05/14 08:18, 0.40
2016/05/14 08:38, 0.40
2016/05/14 08:58, 0.40
2016/05/14 09:18, 0.40
2016/05/14 09:38, 0.40
2016/05/14 09:58, 0.79
2016/05/14 10:18, 6.03
2016/05/14 10:38, 12.05
2016/05/14 10:58, 12.07
2016/05/14 11:18, 12.22
2016/05/14 11:38, 12.25
2016/05/14 11:58, 12.25
2016/05/14 12:18, 12.64
2016/05/14 12:38, 12.84
2016/05/14 12:58, 13.04
2016/05/14 13:18, 13.37
2016/05/14 13:38, 15.55
2016/05/14 13:58, 14.52
2016/05/14 14:18, 13.63
2016/05/14 14:38, 13.94
2016/05/14 14:58, 14.52
2016/05/14 15:18, 18.17
2016/05/14 15:38, 15.58
2016/05/14 15:58, 18.17
2016/05/14 16:18, 18.82
2016/05/14 16:38, 16.23
2016/05/14 16:58, 19.06
2016/05/14 17:18, 19.67
2016/05/14 17:38, 15.41
2016/05/14 17:58, 19.84
2016/05/14 18:18, 19.17
2016/05/14 18:38, 18.32
2016/05/14 18:58, 19.08
2016/05/14 19:18, 18.86
2016/05/14 19:38, 17.48
2016/05/14 19:58, 19.80
2016/05/14 20:18, 19.00
2016/05/14 20:38, 19.00
2016/05/14 20:58, 20.48
2016/05/14 21:18, 17.52
2016/05/14 21:38, 19.87
2016/05/14 21:58, 16.97
2016/05/14 22:18, 13.73
2016/05/14 22:38, 13.42
2016/05/14 22:58, 12.35
2016/05/14 23:18, 12.26
2016/05/14 23:38, 12.25
2016/05/14 23:58, 12.10
2016/05/15 00:18, 12.05
2016/05/15 00:38, 11.86
2016/05/15 00:58, 11.82
2016/05/15 01:18, 3.94
2016/05/15 01:38, 0.40
2016/05/15 01:58, 0.40
2016/05/15 02:18, 0.40
2016/05/15 02:38, 0.40
2016/05/15 02:58, 0.40
2016/05/15 03:18, 0.40
2016/05/15 03:38, 0.40
2016/05/15 03:58, 0.40
2016/05/15 04:18, 0.40
2016/05/15 04:38, 0.40
2016/05/15 04:58, 0.40
2016/05/15 05:18, 0.40
2016/05/15 05:38, 0.40
2016/05/15 05:58, 0.40
2016/05/15 06:18, 0.40
2016/05/15 06:38, 0.40
2016/05/15 06:58, 0.40
2016/05/15 07:18, 0.40
2016/05/15 07:38, 0.40
2016/05/15 07:58, 0.40
2016/05/15 08:18, 0.40
2016/05/15 08:38, 0.40
2016/05/15 08:58, 0.40
2016/05/15 09:18, 0.40
2016/05/15 09:38, 0.40
2016/05/15 09:58, 3.66
2016/05/15 10:18, 11.06
2016/05/15 10:38, 11.57
2016/05/15 10:58, 11.72
2016/05/15 11:18, 11.75
2016/05/15 11:38, 12.25
2016/05/15 11:58, 12.25
2016/05/15 12:18, 12.84
2016/05/15 12:38, 13.83
2016/05/15 12:58, 14.17
2016/05/15 13:18, 15.86
2016/05/15 13:38, 13.80
2016/05/15 13:58, 17.83
2016/05/15 14:18, 17.28
2016/05/15 14:38, 17.59
2016/05/15 14:58, 17.27
2016/05/15 15:18, 17.74
2016/05/15 15:38, 17.86
2016/05/15 15:58, 17.50
2016/05/15 16:18, 17.98
2016/05/15 16:38, 17.29
2016/05/15 16:58, 17.43
2016/05/15 17:18, 17.77
2016/05/15 17:38, 17.51
2016/05/15 17:58, 18.02
2016/05/15 18:18, 18.53
2016/05/15 18:38, 17.80
2016/05/15 18:58, 19.07
2016/05/15 19:18, 19.13
2016/05/15 19:38, 19.29
2016/05/15 19:58, 19.41
2016/05/15 20:18, 19.56
2016/05/15 20:38, 20.16
2016/05/15 20:58, 20.19
2016/05/15 21:18, 20.32
2016/05/15 21:38, 20.32
2016/05/15 21:58, 20.17
2016/05/15 22:18, 20.31
2016/05/15 22:38, 20.31
2016/05/15 22:58, 20.26
2016/05/15 23:18, 20.40
2016/05/15 23:38, 20.27
2016/05/15 23:58, 19.79
2016/05/16 00:18, 18.34
2016/05/16 00:38, 15.82
2016/05/16 00:58, 12.65
2016/05/16 01:18, 10.20
2016/05/16 01:38, 1.56
2016/05/16 01:58, 0.40